Location: Góry Miechowskie
(50.3599°N, 20.1803°E)
Time: 01:33:08
(UTC+00:00)

S-56A Canister/Altair - Pass Details

Date: 15 September 2024
Orbit: 636 x 2487 km, 38.9° (Epoch: 15 October)

Event Time Altitude Azimuth Distance (km) Brightness Sun altitude
Rises 23:37:59 0° 267° (W) 4,624 - -35.4°
Reaches altitude 10° 23:42:40 10° 246° (WSW) 4,011 - -35.1°
Maximum altitude 23:47:59 15° 216° (SW) 3,979 - -34.8°
Drops below altitude 10° 23:54:05 10° 188° (S) 4,723 - -34.4°
Sets 00:00:38 0° 169° (S) 5,990 - -34.0°
